Location: Unspecified
(17.6330°N, 0.0000°E)
Time: 21:02:52
(UTC+00:00)

A-11 Canister half - Pass Details

Date: 21 June 2019
Orbit: 1514 x 1685 km, 47.2° (Epoch: 18 July)

Event Time Altitude Azimuth Distance (km) Brightness Sun altitude
Rises 07:34:00 0° 200° (SSW) 4,926 11.3 27.6°
Reaches altitude 10° 07:37:30 10° 192° (SSW) 3,941 11.0 28.4°
Maximum altitude 07:46:37 39° 128° (SE) 2,349 10.8 30.5°
Drops below altitude 10° 07:55:35 10° 64° (ENE) 3,888 12.6 32.5°
Sets 07:58:57 0° 56° (ENE) 4,854 12.6 33.3°
